CW0003 Weather Reports


time (UTC)temp
F
wind
direction
speed
knots
gust
knots
rain 1hr
in
rain 24hr
in
rain mn
in
humidity
%
barometer
mb
20260507223025 59 244 0.9 11.3 0.00 0.08 0.01 34 1004.4
20260507221523 59 257 4.3 11.3 0.00 0.08 0.01 34 1004.3
20260507220021 60 215 2.6 7.0 0.00 0.08 0.01 38 1004.2
20260507214520 60 236 2.6 10.4 0.00 0.09 0.01 34 1003.9
20260507213021 61 248 1.7 11.3 0.00 0.09 0.01 35 1003.8
20260507211517 61 237 3.5 13.0 0.00 0.09 0.01 37 1003.9
20260507210016 61 31 4.3 9.6 0.00 0.09 0.01 34 1003.6
20260507204513 63 221 3.5 10.4 0.00 0.11 0.01 36 1003.7
20260507203011 64 224 5.2 14.8 0.00 0.11 0.01 31 1003.7
20260507201511 63 212 2.6 9.6 0.00 0.11 0.01 31 1003.5
20260507200005 63 238 2.6 8.7 0.00 0.11 0.01 33 1003.6
20260507194610 62 254 4.3 11.3 0.00 0.16 0.01 34 1003.9
20260507193059 62 237 3.5 8.7 0.00 0.16 0.01 34 1004.1
20260507191615 63 217 2.6 9.6 0.00 0.16 0.01 38 1004.3
20260507190054 62 223 4.3 10.4 0.00 0.16 0.01 33 1004.4
20260507184601 62 5 0.9 11.3 0.00 0.17 0.01 33 1004.4
20260507183050 63 225 1.7 10.4 0.00 0.17 0.01 29 1004.4
20260507181548 63 192 2.6 14.8 0.00 0.17 0.01 33 1004.4
20260507180045 62 229 4.3 12.2 0.00 0.17 0.01 30 1004.8
20260507174542 62 213 4.3 13.0 0.00 0.17 0.01 33 1004.7
20260507173037 61 276 0.9 13.9 0.00 0.17 0.01 40 1004.6
20260507171532 61 9 3.5 8.7 0.00 0.17 0.01 40 1004.7
20260507170030 61 232 3.5 10.4 0.00 0.17 0.01 39 1005.0
20260507164531 59 19 2.6 11.3 0.00 0.17 0.01 44 1005.2
20260507163028 60 249 1.7 12.2 0.00 0.17 0.01 42 1005.3
20260507161524 60 228 4.3 10.4 0.00 0.17 0.01 48 1005.5
20260507160030 60 254 1.7 9.6 0.00 0.17 0.01 50 1005.4
20260507154519 59 227 0.9 7.8 0.00 0.17 0.01 54 1005.6
20260507153005 59 213 3.5 8.7 0.00 0.17 0.01 61 1005.6
20260507151605 59 244 2.6 8.7 0.00 0.17 0.01 58 1005.7
20260507150057 57 231 3.5 7.8 0.00 0.17 0.01 61 1005.9
20260507144555 58 192 1.7 7.0 0.00 0.17 0.01 60 1006.0
20260507143105 56 205 1.7 8.7 0.00 0.17 0.01 63 1006.1
20260507141604 56 246 0.9 6.1 0.00 0.17 0.01 63 1006.3
20260507140045 56 241 0.0 6.1 0.00 0.17 0.01 70 1006.2
20260507134542 56 22 0.0 7.0 0.00 0.17 0.01 68 1006.1
20260507133041 56 360 1.7 8.7 0.00 0.17 0.01 67 1006.1
20260507131540 55 259 2.6 6.1 0.00 0.17 0.01 66 1006.3
20260507130039 54 242 0.9 5.2 0.00 0.17 0.01 75 1006.4
20260507124525 54 235 2.6 6.1 0.00 0.17 0.01 75 1006.4
20260507123022 53 219 1.7 6.1 0.00 0.17 0.01 76 1006.4
20260507121518 51 263 0.0 4.3 0.00 0.17 0.01 81 1006.5
20260507120016 51 225 1.7 4.3 0.00 0.17 0.01 85 1006.4
20260507114514 50 0.0 0.0 0.00 0.17 0.01 85 1006.5
20260507113001 49 0.0 0.0 0.00 0.17 0.01 89 1006.5
20260507111556 48 0.0 0.0 0.00 0.17 0.01 88 1006.5
20260507110051 48 0.0 0.0 0.00 0.17 0.01 91 1006.1
20260507104544 0 0.0 0.0 0.00 0.17 0.01 1006.3
20260507103038 0 0.0 0.0 0.00 0.17 0.01 1005.8
20260507101533 0 0.0 0.0 0.00 0.17 0.01 1005.5
20260507100036 0 0.0 0.0 0.00 0.17 0.01 1005.8
20260507094520 0 0.0 0.0 0.00 0.17 0.01 1005.2
20260507093014 0 0.0 0.0 0.00 0.17 0.01 1005.7
20260507091513 0 0.0 0.0 0.00 0.17 0.01 1005.6
20260507090002 0 0.0 0.0 0.00 0.17 0.01 1006.1
20260507084558 0 0.0 0.0 0.00 0.17 0.01 1005.9
20260507083051 0 0.0 0.0 0.00 0.17 0.01 1005.8
20260507081553 0 0.0 0.0 0.00 0.17 0.01 1005.5
20260507080040 0 0.0 0.0 0.00 0.17 0.01 1005.5
20260507074534 0 0.0 0.0 0.00 0.17 0.01 1005.6
20260507073031 0 0.0 0.0 0.00 0.17 0.01 1005.7
20260507071528 0 0.0 0.0 0.00 0.17 0.01 1004.9
20260507070014 52 0.0 0.0 0.00 0.17 0.01 91 1005.0
20260507064509 52 0.0 0.0 0.00 0.17 0.01 89 1004.6
20260507063004 53 0.0 0.0 0.00 0.17 0.01 91 1004.8
20260507061558 53 0.0 0.0 0.00 0.17 0.01 92 1004.8
20260507060110 53 0.0 0.0 0.00 0.17 0.01 93 1004.8
20260507054551 54 0.0 0.0 0.00 0.17 0.01 92 1004.7
20260507053041 54 0.0 0.0 0.00 0.17 0.01 92 1005.2
20260507051540 54 0.0 0.0 0.00 0.17 0.01 92 1005.2
20260507050039 55 0.0 0.0 0.01 0.17 0.01 91 1005.2
20260507044524 56 0.0 0.0 0.01 0.17 0.01 92 1005.4
20260507043018 56 0.0 0.0 0.01 0.17 0.01 92 1005.0
20260507041522 57 0.0 0.0 0.01 0.17 0.01 94 1004.9
20260507040006 57 0.0 0.0 0.00 0.16 0.00 94 1004.9
20260507034500 57 0.0 0.0 0.00 0.16 0.16 94 1004.7
20260507033056 58 0.0 0.0 0.00 0.16 0.16 94 1004.4
20260507031550 58 0.0 0.0 0.00 0.16 0.16 94 1004.3
20260507030044 58 0.0 0.0 0.00 0.16 0.16 95 1004.2
20260507024538 58 0.0 0.0 0.00 0.16 0.16 94 1003.9
20260507023032 58 0.0 0.0 0.00 0.16 0.16 94 1004.0
20260507021527 58 0.0 0.0 0.00 0.16 0.16 94 1003.9
20260507020020 58 0.0 0.0 0.00 0.16 0.16 94 1003.7
20260507014511 58 0.0 0.0 0.01 0.16 0.16 94 1003.9
20260507013006 58 0.0 0.0 0.01 0.16 0.16 94 1003.9
20260507011556 58 0.0 0.0 0.01 0.16 0.16 94 1004.1
20260507010100 58 0.0 0.0 0.01 0.16 0.16 94 1004.1
20260507004544 58 0.0 0.0 0.00 0.15 0.15 94 1004.0
20260507003039 58 0.0 0.0 0.00 0.15 0.15 94 1004.0
20260507001533 58 0.0 0.0 0.00 0.15 0.15 94 1003.8
20260507000027 58 0.0 0.0 0.03 0.15 0.15 95 1003.8
20260506234522 58 0.0 0.0 0.04 0.15 0.15 94 1003.6
20260506233016 58 0.0 0.0 0.04 0.15 0.15 94 1003.5
20260506231509 59 0.0 0.0 0.05 0.15 0.15 94 1003.4
20260506230010 59 0.0 0.0 0.02 0.11 0.11 94 1003.7
20260506224559 59 0.0 0.0 0.02 0.11 0.11 94 1003.9